Home   Weather   Talkeetna   Past weeks

Flag for USA Past Weather in Talkeetna, Alaska, USA — Yesterday and Last 2 Weeks

Now
55 °F

Sunny.


Feels Like: 53 °F
Forecast: 53 / 69 °F
Wind: 8 mph from North

Location: Talkeetna Weather Reporting Station

Current Time: Aug 30, 2016 at 9:16:04 AM

Latest Report: Aug 30, 2016 at 7:53 AM


Visibility: 10 mi

Pressure: 30.10 "Hg

Humidity: 45%

Dew Point: 34 °F

Location of TalkeetnaLocation

Past Weather in Talkeetna — Graph

°F

Talkeetna Temperature Yesterday

Maximum temperature yesterday: 76 °F (at 3:53 PM)
Minimum temperature yesterday: 50 °F (at 7:53 AM)
Average temperature yesterday: 64 °F

High & Low Weather Summary for the Past Weeks

 TemperatureHumidityPressure
High78 °F (Aug 28, 4:53 PM)97% (Aug 18, 5:53 AM)30.29 "Hg (Aug 18, 5:53 AM)
Low46 °F (Aug 28, 4:53 AM)20% (Aug 29, 5:53 PM)29.67 "Hg (Aug 15, 7:53 AM)
Average59 °F75%30.05 "Hg
* Reported Aug 15 7:53 AM — Aug 30 7:53 AM, Talkeetna, Weather by CustomWeather, © 2016

Note: Actual official high and low records may vary slightly from our data, if they occured in-between our weather recording intervals... More about our weather records

Advertising

Talkeetna Weather History for the Previous 24 Hours

Scroll right to see more
 ConditionsComfort  
Time TempWeatherWind HumidityBarometerVisibility
7:53 AM
Tue, Aug 30
55 °FSunny.8 mph45%30.10 "Hg10 mi
6:53 AM47 °FClear.6 mph64%30.10 "Hg10 mi
5:53 AM52 °FClear.3 mph53%30.10 "Hg10 mi
4:53 AM51 °FClear.7 mph56%30.10 "Hg10 mi
3:53 AM52 °FClear.9 mph53%30.10 "Hg10 mi
2:53 AM56 °FClear.8 mph42%30.09 "Hg10 mi
1:53 AM58 °FClear.12 mph38%30.09 "Hg10 mi
12:53 AM59 °FClear.9 mph38%30.10 "Hg10 mi
11:53 PM
Mon, Aug 29
62 °FClear.9 mph32%30.08 "Hg10 mi
10:53 PM61 °FClear.12 mph38%30.07 "Hg10 mi
9:53 PM64 °FSunny.6 mph34%30.05 "Hg10 mi
8:53 PM68 °FSunny.7 mph28%30.03 "Hg10 mi
7:53 PM71 °FSunny.12 mph25%30.02 "Hg10 mi
6:53 PM73 °FSunny.20 mph21%30.01 "Hg10 mi
5:53 PM74 °FSunny.20 mph20%29.99 "Hg10 mi
4:53 PM75 °FSunny.16 mph22%29.98 "Hg10 mi
3:53 PM76 °FSunny.18 mph22%29.97 "Hg8 mi
2:53 PM75 °FSunny.16 mph23%29.97 "Hg10 mi
1:53 PM74 °FSunny.10 mph24%29.97 "Hg10 mi
12:53 PM73 °FSunny.12 mph26%29.98 "Hg10 mi
11:53 AM71 °FSunny.13 mph30%30.00 "Hg10 mi
10:53 AM66 °FSunny.7 mph40%30.00 "Hg10 mi
9:53 AM60 °FSunny.6 mph52%30.01 "Hg10 mi
Weather by CustomWeather, © 2016

See weather overviewHow to use our weather pages